Theta_e
317 316 317 317 314 314 316 317 317 316 315 318 317 315 315 316 317 316 319 319 320 320 321 321 321 321 321 322 327 336 338 336 337 337 338 340 340 336 331 329 330 334 334 334
315 318 319 313 313 313 313 314 316 316 316 317 316 314 311 314 314 316 316 318 319 319 320 320 320 320 321 321 321 322 326 332 333 336 333 339 340 340 334 330 330 335 336 334
312 316 316 314 313 314 313 315 316 317 314 314 313 314 312 311 313 314 315 317 318 319 319 320 320 321 322 322 322 322 322 323 322 325 330 337 342 341 337 334 331 334 335 334
312 310 316 316 314 314 315 313 313 313 311 312 311 313 312 312 310 311 313 314 316 318 319 320 321 321 322 322 322 322 323 323 323 322 328 332 331 335 335 337 335 334 335 337
312 313 315 318 315 312 314 311 310 309 309 309 310 312 312 311 312 313 313 313 314 316 318 320 320 321 322 321 322 322 323 325 326 327 328 333 334 336 337 339 337 336 337 338
313 311 315 317 318 314 315 315 315 312 310 313 313 311 313 312 312 313 313 315 315 315 315 317 319 320 320 321 321 321 322 324 326 328 329 331 334 337 338 340 339 338 338 338
305 309 311 312 319 317 318 320 322 322 320 318 313 312 313 312 313 312 312 314 316 318 319 319 320 321 321 321 321 321 321 323 326 330 333 333 335 336 338 339 340 339 339 339
309 312 313 313 313 318 319 320 320 321 318 317 313 315 314 313 314 314 314 314 314 316 317 317 318 318 319 319 320 321 321 321 321 325 331 335 335 336 340 342 342 340 340 338
306 311 306 310 313 316 318 319 317 318 316 316 314 314 315 314 314 312 312 314 314 315 316 316 317 317 317 318 318 319 319 319 320 321 324 332 333 336 340 342 341 340 339 339
302 303 305 304 307 315 317 318 321 320 320 319 316 316 316 314 314 314 314 314 315 315 315 316 316 316 316 317 318 319 320 319 319 320 322 328 334 337 341 340 339 337 338 339
301 300 301 303 308 306 317 318 319 319 321 323 321 316 315 315 314 313 311 312 313 314 314 315 316 317 317 318 319 320 320 320 320 319 322 330 333 338 342 339 337 339 338 339
301 299 302 301 302 301 307 307 306 314 318 314 321 321 312 313 312 309 307 306 308 311 314 317 317 317 318 320 320 320 321 319 320 322 327 328 333 339 342 339 338 337 338 338
300 293 294 299 303 306 306 305 304 304 307 309 312 318 309 308 304 303 304 304 307 310 314 315 316 317 318 319 319 320 321 325 327 331 334 332 334 341 342 339 337 336 335 336
301 298 298 298 300 300 302 303 303 304 304 305 305 306 307 306 304 303 303 304 306 311 310 309 312 314 317 318 318 319 321 327 334 335 338 336 337 336 339 337 335 334 336 334
299 298 302 301 301 301 301 302 302 303 304 304 303 305 304 303 303 303 303 304 306 306 307 306 308 310 313 315 317 318 318 325 330 335 333 333 334 336 340 338 336 335 333 331
299 297 302 300 301 303 303 301 300 302 302 303 304 305 304 303 303 303 303 304 304 305 305 306 306 307 311 314 314 317 318 320 327 331 332 333 334 336 337 336 335 333 330 330
295 299 298 299 300 301 299 301 301 301 302 303 303 303 303 302 302 301 301 301 301 303 304 303 302 305 309 313 315 316 316 318 321 328 331 333 334 334 334 333 332 331 328 326
297 298 300 297 299 299 298 298 300 300 301 301 301 301 301 301 302 302 301 301 301 303 302 302 303 304 309 311 314 316 317 317 319 323 328 330 333 332 333 332 331 329 325 323
299 299 299 299 295 298 299 298 298 299 299 299 299 300 300 301 301 300 300 300 301 301 302 303 303 305 308 312 312 315 317 317 318 320 322 327 330 332 331 330 329 325 323 317
298 299 299 286 296 293 298 298 299 298 299 299 299 299 299 299 298 299 300 301 301 302 302 303 304 304 305 310 309 314 316 316 317 319 320 325 328 329 331 330 326 322 316 314
299 300 300 299 299 299 298 298 299 298 298 299 299 299 299 298 299 301 302 301 302 302 303 304 306 307 307 310 310 313 315 316 317 318 320 322 324 327 327 325 320 315 312 309
299 299 295 299 300 300 299 299 299 299 300 300 300 301 301 301 301 301 302 302 303 303 304 305 307 305 304 308 310 311 314 316 316 317 318 319 320 322 322 320 315 311 310 305
300 300 299 300 298 298 299 299 300 300 300 300 300 301 301 301 302 302 302 303 304 304 304 304 304 303 304 306 309 311 313 315 315 316 316 317 316 317 318 316 311 308 305 302
298 298 299 300 300 300 300 300 300 300 299 300 300 300 301 301 301 302 302 303 303 304 305 305 305 304 304 305 309 311 313 314 314 315 315 315 314 313 313 310 309 307 303 299
298 299 300 300 300 300 300 300 300 300 300 300 300 300 301 301 301 302 302 303 303 304 304 305 306 306 306 305 308 311 313 313 313 313 311 311 308 308 308 305 305 304 301 299
298 298 299 300 300 300 300 300 300 300 300 300 300 300 300 300 301 301 302 302 303 304 305 305 305 306 306 308 308 310 308 311 312 311 308 307 305 302 305 303 301 299 299 299
Wind_Speed
10 5 16 25 15 4 2 1 1 1 8 2 6 11 8 8 14 16 27 27 29 31 29 28 28 29 31 35 42 46 48 44 44 43 44 43 40 39 38 37 36 33 31 29
5 19 25 6 8 6 8 9 10 4 7 3 4 10 7 6 12 18 23 31 34 33 32 29 28 28 27 30 36 38 42 49 50 50 46 48 43 41 37 37 38 35 33 31
20 26 8 14 9 13 16 18 15 6 5 5 4 13 7 8 15 23 27 34 35 35 30 28 23 24 23 26 29 33 38 38 47 52 51 51 45 42 39 41 40 38 36 34
13 26 8 17 19 17 17 11 5 4 2 5 4 12 9 10 10 9 29 30 33 32 31 26 25 27 25 25 24 29 34 39 42 50 53 51 47 47 45 45 42 38 37 36
15 10 21 11 21 12 15 8 10 8 9 3 10 6 22 5 14 21 22 27 31 31 28 27 26 26 24 19 23 25 28 34 39 44 48 48 51 48 45 44 43 40 37 35
17 6 12 26 8 9 2 3 3 4 4 6 21 13 28 12 22 19 11 25 30 29 28 29 28 29 27 24 20 22 24 29 35 39 45 48 49 49 48 45 43 41 37 34
15 16 6 2 11 15 7 9 5 8 7 16 7 9 24 3 12 11 11 21 27 25 22 23 22 21 23 22 18 19 21 27 32 38 45 49 49 48 49 48 45 39 37 35
6 6 13 8 9 5 15 15 7 7 8 13 10 8 19 9 30 44 35 25 19 19 21 20 24 29 29 26 23 19 20 20 24 35 43 50 50 49 48 49 45 36 34 36
6 4 6 6 11 14 14 15 22 15 16 4 4 7 24 25 21 12 13 16 23 24 28 30 28 28 28 27 27 28 28 27 28 30 38 47 50 49 49 49 40 35 34 36
3 5 3 7 7 14 23 7 8 8 13 20 13 14 14 4 11 14 17 21 28 35 37 41 40 38 35 31 32 32 34 33 32 30 34 43 45 47 47 46 37 35 36 34
1 2 7 5 7 8 5 18 14 3 7 6 10 11 18 21 6 7 7 14 18 19 26 33 36 37 36 26 23 28 29 32 33 34 35 37 42 44 45 42 37 38 33 32
2 2 3 5 4 4 3 4 5 3 13 4 2 3 7 9 13 12 15 24 29 24 23 21 17 19 17 15 19 25 24 25 29 32 37 35 37 40 43 37 38 34 33 33
1 1 3 7 3 4 4 3 2 4 4 2 1 5 6 8 10 14 15 27 30 27 26 25 21 17 18 20 22 24 23 19 21 28 33 34 35 41 41 38 34 33 33 34
1 2 5 4 5 3 6 5 7 3 3 4 4 10 24 13 14 13 20 24 27 26 24 28 28 27 22 21 23 22 24 18 20 27 32 33 37 38 37 34 33 35 33 28
5 5 5 9 14 13 12 11 10 13 11 7 6 11 25 18 14 17 18 24 21 27 30 30 33 32 29 28 26 25 24 19 19 27 31 31 33 36 36 35 34 33 26 27
1 3 3 5 10 11 14 16 15 13 14 15 19 19 24 27 24 21 16 12 23 26 30 33 37 36 33 28 25 25 25 22 18 23 29 31 33 35 36 38 35 32 27 31
4 4 2 8 7 6 8 21 14 10 10 15 15 22 22 19 12 16 16 19 24 30 31 36 41 39 35 31 28 26 25 25 22 21 24 31 34 38 38 35 33 33 32 34
8 4 3 5 3 8 13 6 14 20 19 16 15 16 22 21 26 27 27 29 30 31 35 38 33 36 36 37 32 26 25 23 25 24 25 27 32 36 38 38 37 37 35 38
17 10 4 3 4 9 19 9 4 6 15 13 17 20 23 32 29 23 30 31 29 31 28 29 31 34 37 39 35 29 25 26 28 31 31 32 33 38 41 41 41 39 39 41
7 13 6 2 4 7 2 3 7 4 12 25 18 19 18 22 10 14 32 30 28 29 29 35 39 38 37 37 35 32 28 28 33 33 31 34 38 40 43 43 42 43 42 42
3 3 14 11 8 8 6 7 8 6 10 3 6 18 18 9 14 31 40 36 37 36 38 33 30 35 38 37 34 33 31 33 34 37 33 36 40 43 46 44 44 46 45 42
5 5 4 5 7 14 11 5 10 11 18 22 19 21 16 25 34 41 46 34 34 39 37 32 33 39 38 38 35 34 36 34 35 36 33 34 39 42 46 46 46 48 46 42
6 7 3 7 7 3 10 13 18 21 25 27 31 33 32 35 36 39 45 36 35 34 37 39 41 42 41 39 38 37 36 33 34 34 32 30 37 42 46 47 50 48 44 41
6 11 13 14 21 27 38 41 39 42 38 39 46 46 41 34 39 44 44 47 36 36 31 35 38 40 38 37 39 37 32 30 32 30 33 33 38 43 44 46 48 47 45 41
8 6 16 19 23 31 35 39 39 38 38 40 42 41 39 36 42 41 47 46 40 42 38 33 40 39 37 36 41 35 26 26 28 31 36 35 38 43 44 46 47 45 41 35
17 23 13 15 24 24 29 36 37 32 31 36 38 41 43 39 43 45 47 47 43 41 39 38 42 41 40 35 36 26 19 23 29 34 36 36 37 40 42 45 41 31 28 28
Wind_Direction
182 177 217 213 212 253 29 299 327 235 258 289 229 268 285 283 270 256 263 258 255 256 256 254 250 249 246 243 241 241 243 245 244 239 237 231 228 229 231 233 230 228 231 234
185 225 224 186 192 205 253 268 256 260 278 221 277 287 270 217 261 252 258 266 265 261 259 257 259 259 255 244 240 240 241 243 246 245 241 236 230 229 230 233 230 227 229 231
203 229 174 193 187 200 219 229 236 228 325 279 359 289 257 256 246 270 263 261 263 262 268 270 259 262 275 264 250 244 245 246 238 241 238 235 231 231 228 229 230 228 228 230
231 241 232 205 212 203 230 213 193 182 135 235 150 279 252 246 255 239 259 256 258 263 264 266 266 266 274 274 250 248 248 244 240 236 234 232 232 231 233 229 229 227 227 230
222 205 217 240 222 185 243 161 182 180 208 121 240 265 263 162 246 245 249 262 264 265 267 263 266 269 273 281 259 261 253 248 246 238 236 232 230 234 237 232 230 228 227 229
258 334 208 224 215 192 77 171 168 161 126 216 231 201 271 220 237 261 259 259 265 271 266 268 267 267 270 271 276 261 259 254 249 243 239 236 234 233 234 235 233 228 227 229
257 254 270 11 211 218 213 188 204 211 210 236 178 194 245 251 235 256 254 258 260 266 270 259 258 265 270 281 271 265 261 258 254 247 240 238 238 237 237 237 234 231 227 230
225 238 196 214 213 195 213 215 218 218 215 249 157 202 239 219 239 260 262 263 276 280 283 281 279 276 277 279 274 262 264 263 266 253 247 242 241 240 238 238 235 233 233 236
360 260 334 323 232 195 220 212 224 248 269 291 202 235 258 254 251 248 265 263 266 270 275 275 280 283 283 282 282 280 276 274 267 255 252 245 243 240 238 236 236 236 236 236
29 298 339 300 320 216 217 205 201 210 223 233 235 224 235 190 234 245 254 261 266 268 267 273 275 277 280 283 287 283 275 267 264 263 258 245 239 238 238 240 234 234 234 229
103 121 301 335 26 9 225 233 240 280 236 208 225 236 234 253 13 2 340 359 353 327 296 281 276 277 282 275 290 290 285 255 250 253 249 239 240 234 233 239 231 232 233 229
182 134 300 273 272 274 20 12 30 278 244 313 273 246 43 70 63 31 360 348 341 342 342 341 324 299 294 292 304 308 299 264 250 244 237 236 236 227 227 228 228 231 230 229
172 347 347 334 49 82 63 43 44 299 269 205 21 304 27 57 43 3 345 333 333 335 339 339 331 327 327 325 312 308 311 282 250 235 230 230 227 219 222 223 224 227 229 226
170 197 186 225 279 322 299 285 300 193 233 328 266 284 294 312 334 336 328 323 324 330 332 329 325 322 318 317 324 322 309 284 236 226 221 222 219 220 219 220 220 227 224 219
132 215 217 243 266 280 271 270 260 252 240 244 275 277 279 288 307 302 301 303 309 311 315 320 325 322 318 316 318 314 314 300 258 232 228 227 223 219 214 213 217 223 214 222
274 266 244 263 265 261 276 277 265 244 241 248 254 259 263 279 283 283 279 290 303 309 310 313 313 320 321 320 325 317 309 297 277 246 234 228 219 216 212 214 215 207 211 216
198 220 231 258 265 279 276 244 243 239 223 221 235 237 260 280 277 284 309 314 298 297 302 307 309 307 316 321 320 313 308 293 280 259 241 227 220 218 213 215 215 208 208 210
235 209 226 263 147 243 243 191 218 227 242 239 257 267 269 272 276 287 290 290 284 286 297 302 302 302 306 311 314 313 307 292 270 260 247 235 224 218 212 212 211 207 206 209
228 232 247 246 201 277 281 258 211 198 265 257 248 258 265 271 279 278 278 278 276 284 296 298 301 306 302 305 312 313 301 288 264 253 243 235 227 221 218 217 209 205 203 202
191 214 222 105 232 242 76 65 221 212 272 249 247 246 260 275 280 276 284 291 291 287 292 300 299 297 295 304 310 306 299 285 264 250 246 236 230 223 216 212 209 201 201 202
164 207 228 238 246 264 230 207 175 171 253 95 241 229 245 251 244 280 292 290 289 289 292 296 289 292 293 298 308 299 302 279 268 254 241 233 228 220 215 209 204 199 197 198
222 202 211 224 239 263 218 202 207 234 277 271 260 268 264 278 285 282 285 285 288 290 290 289 281 286 288 290 298 301 291 285 270 250 239 231 224 217 215 208 199 197 197 196
248 214 209 204 229 266 267 240 254 272 267 260 259 274 289 288 281 281 285 280 289 289 283 283 281 284 285 286 291 296 288 288 258 242 236 227 220 214 210 204 198 194 195 194
255 249 248 265 258 260 266 270 273 273 270 272 275 281 284 279 277 279 281 281 280 284 279 285 280 274 275 285 286 290 286 272 249 239 228 217 215 210 204 201 197 195 194 191
246 283 254 259 266 275 271 268 271 273 276 273 275 276 280 274 277 276 276 275 276 276 275 278 271 273 273 280 286 291 280 256 238 227 217 206 207 205 194 195 194 195 195 195
243 249 248 257 264 271 277 282 285 280 275 278 277 280 279 274 274 274 271 271 271 269 270 276 267 268 268 273 284 281 254 244 229 210 205 200 199 198 191 189 183 183 185 175